Weather History for KIDI - September, 2013

Change the Weather History Date:

Saturday, September 7, 2013

  Actual Average Record
Temperature  
Mean Temperature 60 °F -  
Max Temperature 75 °F 77 °F 140 °F (1997)
Min Temperature 44 °F 54 °F 33 °F (2005)
Degree Days  
Heating Degree Days 6    
Growing Degree Days 10 (Base 50)    
Moisture  
Dew Point 52 °F    
Average Humidity 76    
Maximum Humidity 100    
Minimum Humidity 44    
Precipitation  
Precipitation 0.00 in - - ()
Sea Level Pressure  
Sea Level Pressure 30.08 in    
Wind  
Wind Speed 2 mph (WSW)    
Max Wind Speed 9 mph    
Max Gust Speed 9 mph    
Visibility 10 miles    
Events      
Averages and records for this station are not official NWS values.
T = Trace of Precipitation, MM = Missing Value Source: NWS Daily Summary

Daily Weather History Graph

Daily Weather History Graph

Search for Another Location

Airport or City:

Trip Planner

Search our weather history database for the weather conditions in past years. The results will help you decide how hot, cold, wet, or windy it might be!

Date:

Astronomy

Sep. 07, 2013 Rise Set
Actual Time 6:49 AM EDT 7:38 PM EDT
Civil Twilight 6:21 AM EDT 8:06 PM EDT
Nautical Twilight 5:48 AM EDT 8:38 PM EDT
Astronomical Twilight 5:14 AM EDT 9:12 PM EDT
Moon 9:03 AM EDT (9/7) 8:34 PM EDT (9/7)
Length of Visible Light 13h 44m
Length of Day
12h 48m
Waxing Crescent, 5% of the Moon is Illuminated
Sep 7
Waxing Crescent
Sep 12
First Quarter
Sep 19
Full
Sep 26
Last Quarter
Oct 4
New

Hourly Weather History & Observations

Time (EDT) Temp. Dew Point Humidity Pressure Visibility Wind Dir Wind Speed Gust Speed Precip Events Conditions
12:15 AM 50.0 °F 50.0 °F 100% 30.17 in 10.0 mi Calm Calm - N/A   Unknown
12:35 AM 50.0 °F 50.0 °F 100% 30.17 in 10.0 mi Calm Calm - N/A   Unknown
12:55 AM 50.0 °F 50.0 °F 100% 30.17 in 10.0 mi Calm Calm - N/A   Unknown
1:15 AM 48.2 °F 48.2 °F 100% 30.16 in 10.0 mi Calm Calm - N/A   Unknown
1:35 AM 48.2 °F 48.2 °F 100% 30.16 in 10.0 mi Calm Calm - N/A   Unknown
1:55 AM 48.2 °F 48.2 °F 100% 30.16 in 10.0 mi Calm Calm - N/A   Unknown
2:15 AM 48.2 °F 48.2 °F 100% 30.15 in 10.0 mi Calm Calm - N/A   Unknown
2:35 AM 48.2 °F 48.2 °F 100% 30.14 in 10.0 mi Calm Calm - N/A   Unknown
2:55 AM 46.4 °F 46.4 °F 100% 30.14 in 10.0 mi Calm Calm - N/A   Unknown
3:15 AM 46.4 °F 46.4 °F 100% 30.14 in 10.0 mi Calm Calm - N/A   Unknown
3:35 AM 46.4 °F 46.4 °F 100% 30.14 in 10.0 mi Calm Calm - N/A   Unknown
3:55 AM 46.4 °F 46.4 °F 100% 30.13 in 10.0 mi Calm Calm - N/A   Unknown
4:15 AM 46.4 °F 46.4 °F 100% 30.13 in 10.0 mi Calm Calm - N/A   Unknown
4:35 AM 46.4 °F 46.4 °F 100% 30.13 in 10.0 mi Calm Calm - N/A   Unknown
4:55 AM 44.6 °F 44.6 °F 100% 30.13 in 10.0 mi Calm Calm - N/A   Unknown
5:15 AM 44.6 °F 44.6 °F 100% 30.13 in 10.0 mi Calm Calm - N/A   Unknown
5:35 AM 44.6 °F 44.6 °F 100% 30.13 in 10.0 mi Calm Calm - N/A   Unknown
5:55 AM 44.6 °F 44.6 °F 100% 30.13 in 10.0 mi Calm Calm - N/A   Unknown
6:15 AM 44.6 °F 44.6 °F 100% 30.13 in 10.0 mi Calm Calm - N/A   Unknown
6:35 AM 44.6 °F 44.6 °F 100% 30.13 in 10.0 mi Calm Calm - N/A   Unknown
6:55 AM 44.6 °F 44.6 °F 100% 30.13 in 10.0 mi Calm Calm - N/A   Unknown
7:15 AM 44.6 °F 44.6 °F 100% 30.13 in 10.0 mi Calm Calm - N/A   Unknown
7:35 AM 46.4 °F 46.4 °F 100% 30.13 in 10.0 mi Calm Calm - N/A   Unknown
7:55 AM 48.2 °F 48.2 °F 100% 30.14 in 10.0 mi Calm Calm - N/A   Unknown
8:15 AM 50.0 °F 50.0 °F 100% 30.14 in 10.0 mi Calm Calm - N/A   Unknown
8:35 AM 53.6 °F 51.8 °F 94% 30.13 in 10.0 mi Calm Calm - N/A   Unknown
8:55 AM 55.4 °F 53.6 °F 94% 30.14 in 10.0 mi Calm Calm - N/A   Unknown
9:15 AM 57.2 °F 53.6 °F 88% 30.13 in 10.0 mi Calm Calm - N/A   Unknown
9:35 AM 60.8 °F 53.6 °F 77% 30.13 in 10.0 mi Calm Calm - N/A   Unknown
9:55 AM 60.8 °F 55.4 °F 82% 30.13 in 10.0 mi WSW 4.6 mph - N/A   Unknown
10:15 AM 62.6 °F 53.6 °F 72% 30.12 in 10.0 mi WSW 6.9 mph - N/A   Unknown
10:35 AM 62.6 °F 55.4 °F 77% 30.13 in 10.0 mi SW 4.6 mph - N/A   Unknown
10:55 AM 64.4 °F 55.4 °F 73% 30.13 in 10.0 mi West 4.6 mph - N/A   Unknown
11:15 AM 64.4 °F 55.4 °F 73% 30.12 in 10.0 mi SSW 4.6 mph - N/A   Unknown
11:35 AM 66.2 °F 53.6 °F 64% 30.12 in 10.0 mi WSW 3.5 mph - N/A   Unknown
11:55 AM 68.0 °F 53.6 °F 60% 30.11 in 10.0 mi Calm Calm - N/A   Unknown
12:15 PM 69.8 °F 51.8 °F 53% 30.11 in 10.0 mi WSW 4.6 mph - N/A   Unknown
12:35 PM 69.8 °F 51.8 °F 53% 30.10 in 10.0 mi Calm Calm - N/A   Unknown
12:55 PM 71.6 °F 51.8 °F 50% 30.09 in 10.0 mi WSW 8.1 mph - N/A   Unknown
1:15 PM 71.6 °F 51.8 °F 50% 30.08 in 10.0 mi Calm Calm - N/A   Unknown
1:35 PM 71.6 °F 51.8 °F 50% 30.07 in 10.0 mi WSW 5.8 mph - N/A   Unknown
1:55 PM 71.6 °F 51.8 °F 50% 30.07 in 10.0 mi SW 4.6 mph - N/A   Unknown
2:15 PM 73.4 °F 51.8 °F 47% 30.06 in 10.0 mi SW 6.9 mph - N/A   Unknown
2:35 PM 73.4 °F 51.8 °F 47% 30.05 in 10.0 mi WNW 4.6 mph - N/A   Unknown
2:55 PM 73.4 °F 53.6 °F 50% 30.05 in 10.0 mi WSW 9.2 mph - N/A   Unknown
3:15 PM 73.4 °F 53.6 °F 50% 30.04 in 10.0 mi WSW 5.8 mph 9.2 mph N/A   Unknown
3:35 PM 73.4 °F 53.6 °F 50% 30.04 in 10.0 mi SW 8.1 mph - N/A   Unknown
3:55 PM 75.2 °F 51.8 °F 44% 30.03 in 10.0 mi West 9.2 mph - N/A   Unknown
4:15 PM 75.2 °F 51.8 °F 44% 30.02 in 10.0 mi West 8.1 mph - N/A   Unknown
4:35 PM 75.2 °F 53.6 °F 47% 30.03 in 10.0 mi West 9.2 mph - N/A   Unknown
4:55 PM 73.4 °F 50.0 °F 44% 30.02 in 10.0 mi WNW 4.6 mph - N/A   Unknown
5:15 PM 75.2 °F 51.8 °F 44% 30.02 in 10.0 mi WNW 8.1 mph - N/A   Unknown
5:35 PM 73.4 °F 53.6 °F 50% 30.01 in 10.0 mi WSW 8.1 mph - N/A   Unknown
5:55 PM 71.6 °F 53.6 °F 53% 30.00 in 10.0 mi WSW 5.8 mph - N/A   Unknown
6:15 PM 73.4 °F 55.4 °F 53% 30.00 in 10.0 mi WSW 4.6 mph - N/A   Unknown
6:35 PM 73.4 °F 55.4 °F 53% 30.00 in 10.0 mi WSW 5.8 mph - N/A   Unknown
6:55 PM 71.6 °F 55.4 °F 57% 29.99 in 10.0 mi Calm Calm - N/A   Unknown
7:15 PM 69.8 °F 57.2 °F 64% 29.99 in 10.0 mi Calm Calm - N/A   Unknown
7:35 PM 69.8 °F 57.2 °F 64% 30.00 in 10.0 mi Calm Calm - N/A   Unknown
7:55 PM 68.0 °F 57.2 °F 68% 30.00 in 10.0 mi Calm Calm - N/A   Unknown
8:15 PM 66.2 °F 59.0 °F 78% 30.00 in 10.0 mi Calm Calm - N/A   Unknown
8:35 PM 66.2 °F 59.0 °F 78% 30.00 in 10.0 mi Calm Calm - N/A   Unknown
8:55 PM 66.2 °F 57.2 °F 73% 30.00 in 10.0 mi Calm Calm - N/A   Unknown
9:15 PM 66.2 °F 57.2 °F 73% 30.00 in 10.0 mi WSW 3.5 mph - N/A   Unknown
9:35 PM 66.2 °F 57.2 °F 73% 30.01 in 10.0 mi WSW 4.6 mph - N/A   Unknown
9:55 PM 66.2 °F 57.2 °F 73% 30.00 in 10.0 mi WSW 4.6 mph - N/A   Unknown
10:15 PM 64.4 °F 57.2 °F 77% 30.00 in 10.0 mi WSW 3.5 mph - N/A   Unknown
10:35 PM 64.4 °F 57.2 °F 77% 30.00 in 10.0 mi Calm Calm - N/A   Unknown
10:55 PM 64.4 °F 57.2 °F 77% 30.00 in 10.0 mi WSW 3.5 mph - N/A   Unknown
11:15 PM 64.4 °F 57.2 °F 77% 29.99 in 10.0 mi WSW 3.5 mph - N/A   Unknown
11:35 PM 64.4 °F 57.2 °F 77% 29.99 in 10.0 mi Calm Calm - N/A   Unknown
11:55 PM 64.4 °F 59.0 °F 83% 29.99 in 10.0 mi Calm Calm - N/A   Unknown